This is the latest recevied weather packets stored in our database for station/object K9COE-11. If no packets are shown the sender has not sent any weather packets the latest 1 day(s).
| Time | Temp. | Humidity | Pressure | Rain* | Wind** | Luminosity | Snow |
|---|---|---|---|---|---|---|---|
| 1836274524 | 20° C | 83% | - | 0 mm | 0 m/s | - | - |
| 1836274328 | 20° C | 83% | - | 0 mm | 0 m/s | - | - |
| 1836274104 | 20.56° C | 82% | - | 0 mm | 0 m/s | - | - |
| 1778090162 | 20.56° C | 49% | - | 0 mm | 0 m/s | - | - |
| 1778090039 | 20° C | 50% | - | 0 mm | 0 m/s | - | - |
| 1778089784 | 20.56° C | 50% | - | 0 mm | 0 m/s | - | - |
| 1778089405 | 20° C | 50% | - | 0 mm | 0 m/s | - | - |
| 1778089018 | 20° C | 51% | - | 0 mm | 0 m/s | - | - |
| 1778088888 | 20° C | 51% | - | 0 mm | 0 m/s | - | - |
| 1778088760 | 20° C | 51% | - | 0 mm | 0 m/s | - | - |
| 1778088243 | 20° C | 51% | - | 0 mm | 0 m/s | - | - |
| 1778087724 | 19.44° C | 52% | - | 0 mm | 0 m/s | - | - |
| 1778087077 | 19.44° C | 54% | - | 0 mm | 0 m/s | - | - |
| 1778086948 | 18.89° C | 53% | - | 0 mm | 0 m/s | - | - |
| 1778086566 | 18.89° C | 53% | - | 0 mm | 0 m/s | - | - |
| 1778086437 | 18.89° C | 53% | - | 0 mm | 0 m/s | - | - |
| 1778086061 | 18.89° C | 53% | - | 0 mm | 0 m/s | - | - |
| 1778085932 | 18.89° C | 55% | - | 0 mm | 0 m/s | - | - |
| 1778085809 | 18.89° C | 55% | - | 0 mm | 0 m/s | - | - |
| 1778085550 | 18.33° C | 56% | - | 0 mm | 0 m/s | - | - |
| 1778085425 | 18.33° C | 55% | - | 0 mm | 0 m/s | - | - |
| 1778085163 | 18.33° C | 56% | - | 0 mm | 0 m/s | - | - |
| 1778084904 | 17.78° C | 56% | - | 0 mm | 0 m/s | - | - |
| 1778084644 | 17.78° C | 55% | - | 0 mm | 0 m/s | - | - |
| 1778083874 | 17.22° C | 58% | - | 0 mm | 0 m/s | - | - |
* Rain latest 24 hours (hover to see other rain measurements)
** Current wind speed in m/s (hover to see current wind gust speed)